| time (UTC) | temp F | wind direction | speed MPH | gust MPH | rain 1hr in | rain 24hr in | rain mn in | humidity % | barometer mb |
| 20260506003057 | 76 | 273 | 22.0 | 32.0 | 0.00 | 0.00 | 0.00 | 28 | 1000.4 |
| 20260506001557 | 76 | 265 | 15.0 | 26.0 | 0.00 | 0.00 | 0.00 | 29 | 1000.5 |
| 20260506000055 | 76 | 241 | 24.0 | 31.0 | 0.00 | 0.00 | 0.00 | 29 | 1000.4 |
| 20260505234554 | 76 | 245 | 24.0 | 33.0 | 0.00 | 0.00 | 0.00 | 29 | 1000.6 |
| 20260505233058 | 76 | 266 | 26.0 | 34.0 | 0.00 | 0.00 | 0.00 | 29 | 1000.6 |
| 20260505231607 | 76 | 254 | 29.0 | 42.0 | 0.00 | 0.00 | 0.00 | 28 | 1000.5 |
| 20260505230051 | 76 | 290 | 25.0 | 34.0 | 0.00 | 0.00 | 0.00 | 28 | 1000.6 |
| 20260505224554 | 76 | 275 | 19.0 | 29.0 | 0.00 | 0.00 | 0.00 | 29 | 1000.6 |
| 20260505223050 | 76 | 260 | 16.0 | 31.0 | 0.00 | 0.00 | 0.00 | 30 | 1000.7 |
| 20260505221550 | 76 | 288 | 20.0 | 33.0 | 0.00 | 0.00 | 0.00 | 29 | 1000.8 |
| 20260505220057 | 76 | 277 | 28.0 | 37.0 | 0.00 | 0.00 | 0.00 | 29 | 1000.9 |
| 20260505214555 | 78 | 290 | 22.0 | 32.0 | 0.00 | 0.00 | 0.00 | 27 | 1000.7 |
| 20260505213043 | 78 | 250 | 18.0 | 34.0 | 0.00 | 0.00 | 0.00 | 26 | 1000.5 |
| 20260505211538 | 78 | 276 | 21.0 | 28.0 | 0.00 | 0.00 | 0.00 | 27 | 1000.8 |
| 20260505210034 | 77 | 252 | 17.0 | 26.0 | 0.00 | 0.00 | 0.00 | 28 | 1001.0 |
| 20260505204531 | 76 | 242 | 13.0 | 22.0 | 0.00 | 0.00 | 0.00 | 29 | 1001.2 |
| 20260505203047 | 75 | 229 | 16.0 | 22.0 | 0.00 | 0.00 | 0.00 | 29 | 1001.4 |
| 20260505201532 | 75 | 236 | 15.0 | 22.0 | 0.00 | 0.00 | 0.00 | 29 | 1001.5 |
| 20260505200025 | 74 | 222 | 14.0 | 20.0 | 0.00 | 0.00 | 0.00 | 28 | 1001.5 |
| 20260505194523 | 74 | 230 | 12.0 | 21.0 | 0.00 | 0.00 | 0.00 | 28 | 1001.4 |
| 20260505193030 | 73 | 246 | 14.0 | 19.0 | 0.00 | 0.00 | 0.00 | 28 | 1001.6 |
| 20260505191522 | 73 | 219 | 13.0 | 18.0 | 0.00 | 0.00 | 0.00 | 29 | 1001.8 |
| 20260505190027 | 73 | 242 | 13.0 | 19.0 | 0.00 | 0.00 | 0.00 | 29 | 1001.7 |
| 20260505184525 | 74 | 225 | 16.0 | 21.0 | 0.00 | 0.00 | 0.00 | 28 | 1001.8 |
| 20260505183021 | 73 | 236 | 9.0 | 14.0 | 0.00 | 0.00 | 0.00 | 31 | 1001.9 |
| 20260505181519 | 73 | 223 | 7.0 | 12.0 | 0.00 | 0.00 | 0.00 | 33 | 1002.1 |
| 20260505180019 | 73 | 223 | 12.0 | 16.0 | 0.00 | 0.00 | 0.00 | 32 | 1002.2 |
| 20260505174526 | 73 | 222 | 12.0 | 17.0 | 0.00 | 0.00 | 0.00 | 32 | 1002.3 |
| 20260505173015 | 73 | 214 | 7.0 | 13.0 | 0.00 | 0.00 | 0.00 | 32 | 1002.1 |
| 20260505171513 | 73 | 248 | 9.0 | 14.0 | 0.00 | 0.00 | 0.00 | 32 | 1002.3 |
| 20260505170016 | 72 | 206 | 3.0 | 7.0 | 0.00 | 0.00 | 0.00 | 31 | 1002.3 |
| 20260505164508 | 71 | 206 | 1.0 | 6.0 | 0.00 | 0.00 | 0.00 | 31 | 1002.4 |
| 20260505163007 | 71 | 206 | 2.0 | 7.0 | 0.00 | 0.00 | 0.00 | 34 | 1002.6 |
| 20260505161503 | 71 | 206 | 0.0 | 1.0 | 0.00 | 0.00 | 0.00 | 32 | 1002.5 |
| 20260505153101 | 70 | 206 | 0.0 | 0.0 | 0.00 | 0.00 | 0.00 | 33 | 1002.4 |
| 20260505151558 | 69 | 206 | 0.0 | 0.0 | 0.00 | 0.00 | 0.00 | 38 | 1002.6 |
| 20260505124524 | 65 | 281 | 0.0 | 7.0 | 0.00 | 0.00 | 0.00 | 39 | 1001.1 |
| 20260505123021 | 64 | 281 | 7.0 | 9.0 | 0.00 | 0.00 | 0.00 | 43 | 1001.2 |
| 20260505121520 | 64 | 281 | 0.0 | 4.0 | 0.00 | 0.00 | 0.00 | 41 | 1000.7 |
| 20260505120020 | 64 | 281 | 0.0 | 4.0 | 0.00 | 0.00 | 0.00 | 42 | 1000.6 |
| 20260505114519 | 65 | 281 | 0.0 | 0.0 | 0.00 | 0.00 | 0.00 | 38 | 1000.3 |
| 20260505113021 | 67 | 281 | 2.0 | 9.0 | 0.00 | 0.00 | 0.00 | 35 | 1000.4 |
| 20260505111517 | 67 | 281 | 6.0 | 9.0 | 0.00 | 0.00 | 0.00 | 34 | 1000.3 |
| 20260505101518 | 67 | 270 | 4.0 | 8.0 | 0.00 | 0.00 | 0.00 | 36 | 1000.2 |
| 20260505100019 | 67 | 236 | 4.0 | 6.0 | 0.00 | 0.00 | 0.00 | 36 | 1000.3 |
| 20260505094511 | 66 | 236 | 0.0 | 1.0 | 0.00 | 0.00 | 0.00 | 38 | 1000.5 |
| 20260505093015 | 65 | 236 | 0.0 | 0.0 | 0.00 | 0.00 | 0.00 | 40 | 1000.6 |
| 20260505091508 | 65 | 236 | 0.0 | 0.0 | 0.00 | 0.00 | 0.00 | 40 | 1000.4 |
| 20260505090007 | 66 | 236 | 0.0 | 0.0 | 0.00 | 0.00 | 0.00 | 40 | 1000.4 |
| 20260505084508 | 66 | 236 | 0.0 | 7.0 | 0.00 | 0.00 | 0.00 | 38 | 1000.4 |
| 20260505083007 | 66 | 236 | 6.0 | 8.0 | 0.00 | 0.00 | 0.00 | 39 | 1000.5 |
| 20260505081505 | 66 | 236 | 5.0 | 10.0 | 0.00 | 0.00 | 0.00 | 39 | 1000.8 |
| 20260505080002 | 66 | 249 | 9.0 | 11.0 | 0.00 | 0.00 | 0.00 | 40 | 1000.7 |
| 20260505074557 | 67 | 279 | 6.0 | 9.0 | 0.00 | 0.00 | 0.00 | 38 | 1000.7 |
| 20260505073058 | 68 | 281 | 8.0 | 9.0 | 0.00 | 0.00 | 0.00 | 38 | 1000.9 |
| 20260505071556 | 68 | 282 | 6.0 | 8.0 | 0.00 | 0.00 | 0.00 | 37 | 1001.0 |
| 20260505070053 | 68 | 282 | 4.0 | 7.0 | 0.00 | 0.00 | 0.00 | 39 | 1000.9 |
| 20260505064550 | 67 | 282 | 0.0 | 0.0 | 0.00 | 0.00 | 0.00 | 40 | 1000.9 |
| 20260505063047 | 68 | 282 | 0.0 | 0.0 | 0.00 | 0.00 | 0.00 | 37 | 1000.9 |
| 20260505061547 | 69 | 282 | 0.0 | 4.0 | 0.00 | 0.00 | 0.00 | 37 | 1001.1 |
| 20260505060040 | 69 | 282 | 1.0 | 4.0 | 0.00 | 0.00 | 0.00 | 36 | 1001.2 |
| 20260505054544 | 68 | 282 | 6.0 | 7.0 | 0.00 | 0.00 | 0.00 | 37 | 1001.4 |
| 20260505053045 | 68 | 282 | 0.0 | 5.0 | 0.00 | 0.00 | 0.00 | 38 | 1001.6 |
| 20260505051539 | 69 | 282 | 0.0 | 3.0 | 0.00 | 0.00 | 0.00 | 35 | 1001.4 |
| 20260505041537 | 71 | 283 | 2.0 | 4.0 | 0.00 | 0.00 | 0.00 | 30 | 1001.7 |
| 20260505040037 | 71 | 283 | 0.0 | 4.0 | 0.00 | 0.00 | 0.00 | 30 | 1001.7 |
| 20260505034538 | 72 | 283 | 4.0 | 7.0 | 0.00 | 0.00 | 0.00 | 28 | 1001.4 |
| 20260505033100 | 75 | 283 | 6.0 | 8.0 | 0.00 | 0.00 | 0.00 | 25 | 1001.2 |
| 20260505031537 | 76 | 283 | 8.0 | 12.0 | 0.00 | 0.00 | 0.00 | 23 | 1001.0 |
| 20260505030034 | 76 | 265 | 9.0 | 15.0 | 0.00 | 0.00 | 0.00 | 23 | 1001.2 |
| 20260505024534 | 77 | 255 | 8.0 | 11.0 | 0.00 | 0.00 | 0.00 | 23 | 1000.6 |
| 20260505023039 | 77 | 256 | 8.0 | 13.0 | 0.00 | 0.00 | 0.00 | 22 | 1000.8 |
| 20260505021531 | 77 | 246 | 11.0 | 14.0 | 0.00 | 0.00 | 0.00 | 22 | 1000.8 |
| 20260505020032 | 76 | 274 | 5.0 | 8.0 | 0.00 | 0.00 | 0.00 | 24 | 1000.8 |
| 20260505014533 | 76 | 274 | 4.0 | 7.0 | 0.00 | 0.00 | 0.00 | 23 | 1000.6 |
| 20260505013031 | 77 | 274 | 7.0 | 12.0 | 0.00 | 0.00 | 0.00 | 22 | 1000.5 |
| 20260505011531 | 79 | 268 | 13.0 | 18.0 | 0.00 | 0.00 | 0.00 | 20 | 1000.6 |
| 20260505010031 | 79 | 264 | 15.0 | 21.0 | 0.00 | 0.00 | 0.00 | 19 | 1000.4 |
| 20260505004539 | 79 | 274 | 13.0 | 24.0 | 0.00 | 0.00 | 0.00 | 19 | 1000.6 |